Glenbrook Real Estate, NSW, 2773 Blue Mountains

Thinking about buying in Glenbrook? Now could not be a better time, with a whopping 2232 properties either residential or commercial there's certainly plenty to choose from.

The average property price for this area is $1,122,000 with prices in this suburb ranging from $702,000 to $2,026,000.

Distance to the coast is 50 Km.

Glenbrook Real Estate Market Outlook

Prices are above market average and increase steadily under persistent demand. A more sustainable rate of price growth is anticipated in the short to medium term. Incomes in Glenbrook are above average indicating a preference for good quality housing and lifestyle. That ensures consistent price growth. The high percentage of professional people in Glenbrook classifies the area as "gentrified". This implies high demand for quality housing, generally of larger than average size. Price growth is ensured even where the state affordability index is negatively impacting other areas. Medium density in Glenbrook necessitates a mix of lifestyle options for housing, shops, open areas, and facilties. Where this is available, demand is high and growth ensured. Higher than average industry presence in the wider area offering local employment yet with not a large negative impact on local amenity, provides good demand and price growth.

About

For Sale

McGrath 2 PEDDER ST, GLENBROOK, NSW, 2773 4 2 4 Under Contract

More

Local Schools


Glenbrook Public School

Lapstone Public School

St Finbar's Primary School

(While the above schools are located with the suburb of Glenbrook there may also be nearby schools whose catchments cover this suburb)

Local Crime Stats


Average Local Climate by month


(mm)
RAIN
Min (°C)
TEMP
Max (°C)
TEMP
Min (%)
HUMIDITY
Max (%)
HUMIDITY
(m/sec)
WIND
(MJ/sq m)
SOLAR
Jan2.518.631.642.294.32.922.2
Feb3.518.029.746.295.12.718.8
Mar4.615.92749.996.02.415.5
Apr2.212.224.647.496.72.014.0
May1.17.221.146.996.71.711.4
Jun2.35.818.054.2971.99.2
Jul0.63.718.643.994.72.210.7
Aug1.14.320.037.892.82.613.2
Sept1.17.623.234.593.22.917.3
Oct1.511.625.338.794.12.819.7
Nov2.314.828.239.994.12.922.6
Dec2.616.629.839.994.3323.7

source: Australian Government Bureau of Meteorology

Recently Sold

11-05-2022 $1,260,000 75 LEVY ST GLENBROOK 2773
26-04-2022 $1,527,000 22 PRINCE ST GLENBROOK 2773
11-04-2022 $1,550,000 5 HILLSIDE CRES GLENBROOK 2773
05-04-2022 $973,000 4 CARMEL ST GLENBROOK 2773
04-04-2022 $1,270,000 1 ALEXANDRA CRES GLENBROOK 2773
01-04-2022 $2,750,000 30 MOUNT ST GLENBROOK 2773
01-04-2022 $1,970,000 22 BROOKDALE TCE GLENBROOK 2773
31-03-2022 $1,110,000 14 GLENBROOK RD GLENBROOK 2773
28-03-2022 $2,051,000 12 EMU RD GLENBROOK 2773
28-03-2022 $880,000 1 / 38 KING ST GLENBROOK 2773
18-03-2022 $1,507,518 8 EMU RD GLENBROOK 2773
16-03-2022 $1,950,000 78 OLIVET ST GLENBROOK 2773
10-03-2022 $1,175,000 3 CLARENCE ST GLENBROOK 2773
10-03-2022 $900,000 2 CLARENCE ST GLENBROOK 2773
25-02-2022 $1,605,000 2 MCCAULEY CRES GLENBROOK 2773
18-02-2022 $1,330,000 26 PRINCE ST GLENBROOK 2773
16-02-2022 $1,235,000 94 GLENBROOK RD GLENBROOK 2773
07-02-2022 $3,520,000 17 EMU RD GLENBROOK 2773
01-02-2022 $950,000 53 HILLSIDE CRES GLENBROOK 2773
31-01-2022 $1,050,000 2 CARMEL ST GLENBROOK 2773
28-01-2022 $1,160,000 34 GLENBROOK RD GLENBROOK 2773
25-01-2022 $416,667 34 MOUNT ST GLENBROOK 2773
12-01-2022 $1,565,000 3 BRIDGE QUARRY PL GLENBROOK 2773
12-01-2022 $1,520,000 47 SURVEYOR ABBOT DR GLENBROOK 2773
11-01-2022 $1,025,000 6 PEEL ST GLENBROOK 2773
10-01-2022 $1,190,000 32 GREAT WESTERN HWY GLENBROOK 2773
22-12-2021 $2,070,000 7 MOUNT SION PL GLENBROOK 2773
17-12-2021 $900,000 4 NEWBRIDGE PL GLENBROOK 2773
17-12-2021 $930,000 54 HERSEY ST GLENBROOK 2773
15-12-2021 $1,350,000 7 MOUNT ST GLENBROOK 2773
10-12-2021 $1,325,000 3 KENT ST GLENBROOK 2773
10-12-2021 $1,800,000 51 OLIVET ST GLENBROOK 2773
08-12-2021 $1,085,000 8 KEDRON ST GLENBROOK 2773
03-12-2021 $1,750,000 9 JAMES RANDALL PL GLENBROOK 2773
17-11-2021 $1,670,000 36 BARNET ST GLENBROOK 2773
16-11-2021 $1,800,000 53 EXPLORERS RD GLENBROOK 2773
12-11-2021 $1,280,000 61 BRUCE RD GLENBROOK 2773
12-11-2021 $1,100,000 71 LEVY ST GLENBROOK 2773
12-11-2021 $1,280,000 61 BRUCE RD GLENBROOK 2773
12-11-2021 $1,100,000 71 LEVY ST GLENBROOK 2773
11-11-2021 $1,300,000 81 LEVY ST GLENBROOK 2773
11-11-2021 $1,300,000 14 LEVY ST GLENBROOK 2773
11-11-2021 $1,720,000 19 TABOR ST GLENBROOK 2773
11-11-2021 $1,300,000 81 LEVY ST GLENBROOK 2773
11-11-2021 $1,300,000 14 LEVY ST GLENBROOK 2773
11-11-2021 $1,720,000 19 TABOR ST GLENBROOK 2773
08-11-2021 $2,750,000 4 KING ST GLENBROOK 2773
01-11-2021 $1,069,000 10 WRIGHT ST GLENBROOK 2773
26-10-2021 $930,000 23 KEDRON ST GLENBROOK 2773
19-10-2021 $2,150,000 15 KENT ST GLENBROOK 2773

Residz covers 12m+ Australian properties and brings together a wealth of data to give you a better understanding of an area. From crime and schools to bush fire, flood risk and more. Begin your search for properties for sale or learn more about where you currently reside. Residz is an exciting next-generation Real Estate platform getting better by the day!